Погода в Чепоше

Россия / Республика Алтай     51°35′13″N   85°50′01″E
темп.,
°C
ветер,
м/с
пор.,
м/с
влажн.,
%
обл.,
%
осадки,
мм/ч
давл.,
гПа
погр.,
м
12 мая, ср
ср1201:00+5ююз2291100 0.1 101523
04:00+5ююз2187100 0.0 101516
07:00+6ю017989 0.0 101554
10:00+10с2257100 0.1 10141341
13:00+12ссв235188 0.2 10141518
16:00+10с356399 1.3 10141270
19:00+10с346293 1.3 10161010
22:00+6зсз118195 0.0 101811
13 мая, чт
чт1301:00+7юз018094 0.0 101827
04:00+6ююв1183100 0.0 101836
07:00+7ю1381100 0.0 1018128
10:00+11ююв115786 0.1 1016825
13:00+15ссз114680 1.4 10141746
16:00+15сз2244100 0.9 10121882
19:00+10с3372100 1.8 1013766
22:00+8сз1292100 2.7 101577
14 мая, пт
пт1401:00+7ю2392100 4.6 1014155
04:00+7ссз1294100 0.4 1014133
07:00+6ссз119499 0.6 1015142
10:00+7сз1289100 0.2 1016248
13:00+7сз2684100 0.8 10191210
16:00+6з1392100 1.0 1021602
19:00+6юз119574 2.1 1024115
22:00+5ююз1192100 0.1 102620
15 мая, сб
сб1501:00+3ююз119327 0.1 102713
04:00+2ю229450 0.0 102728
07:00+4ю238810 0.0 102795
10:00+11юв115819 0.0 1025803
13:00+16ссв11342 0.0 10231359
16:00+16с22326 0.0 10221675
19:00+15с22478 0.0 1022976
22:00+8ююз0079100 0.0 102310
16 мая, вс
вс1601:00+7ю217966 0.0 102213
04:00+6ю22785 0.0 102119
07:00+8ю23670 0.0 102092
10:00+17ю12390 0.0 1018820
13:00+20ссз23325 0.0 10162113
16:00+19ссз343798 0.0 10151868
19:00+14ссз1175100 1.1 101637
22:00+10ю228631 0.1 101630